Location: Hamilton Branch State Park
(33.7552°N, 82.2209°W)
Time: 09:43:40
(UTC-05:00)

UWE-3 - Visible Passes

Search period start: 15 November 2019 00:00
Search period end: 25 November 2019 00:00
Orbit: 586 x 682 km, 97.6° (Epoch: 14 November)

Date Brightness Start Highest point End Pass type
(mag) Time Alt. Az. Time Alt. Az. Time Alt. Az.
15 Nov ? 05:11:20 10° NE 05:14:24 17° E 05:17:24 10° SE visible
16 Nov ? 05:32:06 10° NE 05:36:11 30° E 05:40:11 10° SSE visible
16 Nov ? 18:00:25 10° S 18:04:34 41° W 18:08:52 10° NNW visible
17 Nov ? 05:53:21 10° NNE 05:57:55 54° E 06:02:21 10° S visible
17 Nov ? 18:22:49 10° SSW 18:26:20 23° W 18:29:57 10° NW visible
18 Nov ? 06:14:55 10° N 06:19:35 84° W 06:24:06 10° SSW visible
18 Nov ? 18:46:05 10° WSW 18:48:09 13° W 18:50:15 10° WNW visible
19 Nov ? 05:02:18 10° ENE 05:04:31 13° E 05:06:43 10° ESE visible
19 Nov ? 06:36:43 10° N 06:41:09 46° WNW 06:45:29 10° SSW visible
20 Nov ? 05:22:39 10° NE 05:26:21 24° E 05:29:57 10° SSE visible
20 Nov ? 17:50:23 10° S 17:54:45 53° W 17:59:15 10° NNW visible
21 Nov ? 05:43:44 10° NNE 05:48:06 41° E 05:52:20 10° S visible
21 Nov ? 18:12:33 10° SSW 18:16:28 30° W 18:20:29 10° NW visible
22 Nov ? 06:05:10 10° NNE 06:09:47 76° ESE 06:14:15 10° S visible
22 Nov ? 18:35:20 10° SW 18:38:16 17° W 18:41:15 10° NW visible
23 Nov ? 06:26:52 10° N 06:31:23 59° WNW 06:35:46 10° SSW visible
24 Nov ? 05:13:19 10° NE 05:16:28 18° E 05:19:34 10° SE visible
24 Nov ? 17:40:26 10° S 17:44:56 69° W 17:49:33 10° NNW visible
